GEFSMW_500_meanwind_000.txt.gz
Wind_Speed
36 40 37 32 28 24 23 24 27 28 28 28 27 28 30 31 34 36 36 37 37 36 36 36 36 37 36 35 35 36 37 36 36 35 33 33 31 28 28 28 29 30 30
39 37 29 24 23 23 24 25 24 23 24 25 28 30 30 32 33 35 37 37 36 36 35 35 34 33 33 32 33 33 33 34 34 35 32 30 27 25 27 28 28 29 30
37 32 22 22 26 26 26 25 22 22 24 24 26 28 29 30 31 32 34 37 38 39 38 39 38 37 36 34 33 33 33 32 32 33 33 32 29 30 30 31 32 33 32
31 23 20 26 29 26 20 21 23 26 26 25 24 24 25 27 29 31 32 34 36 39 41 41 41 40 39 37 35 34 34 33 31 32 34 36 33 31 32 35 35 33 32
23 23 24 27 27 21 19 21 22 22 21 21 20 20 22 23 25 29 33 35 36 37 38 41 43 42 40 38 36 36 35 33 31 32 34 36 36 36 37 33 32 33 32
22 26 27 25 24 22 23 23 21 21 20 20 19 21 22 24 26 28 30 34 37 37 38 39 41 42 41 40 38 37 35 34 34 33 35 37 38 37 36 33 30 31 32
27 27 23 22 24 25 24 23 23 24 23 24 25 25 25 26 27 28 29 33 35 37 38 37 38 40 41 40 40 39 38 36 36 35 36 37 37 35 33 32 31 31 30
24 21 22 24 26 25 25 24 25 25 24 25 26 27 28 28 29 30 31 33 34 36 35 35 35 37 39 39 39 39 40 39 39 38 38 39 38 36 34 34 32 31 29
18 19 22 26 26 27 28 28 27 28 28 27 28 30 29 29 30 31 33 32 33 37 35 33 33 34 36 38 39 39 39 40 40 40 40 39 37 37 36 31 29 29 26
24 27 28 28 29 31 33 34 33 32 31 32 32 32 34 32 31 32 34 34 33 35 36 34 34 34 33 35 37 37 38 38 39 40 41 39 37 38 34 31 29 26 21
33 35 37 37 38 39 40 42 42 38 33 30 32 35 39 40 37 35 35 34 33 34 36 35 34 33 34 33 33 33 34 35 36 38 38 37 35 34 32 29 29 28 24
39 42 44 44 45 46 47 47 48 47 44 40 38 39 41 43 44 39 37 35 35 34 34 33 32 31 30 29 28 29 30 31 32 31 31 29 28 30 29 29 29 27 26
44 46 47 48 48 49 51 52 51 49 49 50 46 43 46 46 43 41 39 37 36 35 31 31 30 28 27 24 23 24 24 24 26 25 25 24 25 25 24 26 23 22 20
48 48 50 52 52 53 54 55 54 51 53 56 54 53 51 49 44 43 42 41 39 37 31 29 29 29 28 24 22 21 19 20 21 23 22 23 24 18 22 20 17 19 15
55 56 58 59 62 61 58 51 49 54 60 65 64 64 60 53 53 52 51 48 42 37 33 27 28 27 26 21 20 19 16 16 21 23 21 25 26 21 15 15 14 12 10
58 59 63 65 59 54 53 53 63 67 71 73 72 70 66 59 57 56 52 48 43 37 34 28 28 25 24 21 20 18 15 17 21 20 20 21 21 23 19 15 11 11 14
61 60 65 66 73 80 77 77 78 75 71 70 71 73 73 70 64 58 50 45 42 38 35 30 28 25 24 21 20 19 13 15 18 21 21 20 19 18 16 12 12 13 14
64 71 75 83 82 82 82 82 80 77 75 74 78 78 72 67 63 58 48 45 43 40 36 30 28 27 26 22 21 22 16 15 18 19 18 17 16 16 13 11 13 14 14
83 89 88 88 87 87 87 85 84 85 86 85 81 78 75 70 63 58 51 48 46 43 39 32 30 28 26 23 22 22 18 19 21 19 16 15 15 15 14 14 14 13 12
87 90 92 91 91 91 91 88 84 84 82 77 72 69 64 60 55 52 49 52 49 44 41 35 31 30 28 25 24 22 20 22 22 21 17 16 16 15 14 14 13 13 14
88 89 88 88 84 81 78 77 73 67 61 53 46 45 42 38 38 42 47 51 51 44 40 39 34 31 29 28 26 23 21 20 20 18 17 16 18 18 17 15 14 14 14
74 72 70 65 59 57 55 54 51 46 42 40 37 37 36 36 38 37 37 45 52 49 47 40 39 34 30 28 27 24 21 18 19 18 17 18 21 21 16 14 14 15 15
55 51 47 42 43 42 40 39 38 38 37 38 39 40 43 43 39 39 39 41 53 52 45 41 43 36 29 27 26 23 21 20 19 19 20 20 21 19 15 16 16 16 16
38 35 37 40 38 38 40 37 36 39 42 42 42 42 41 41 40 35 33 39 54 55 38 38 43 34 29 26 24 20 19 21 20 20 20 21 21 19 14 15 16 16 16
39 39 41 42 43 44 45 45 42 39 41 43 43 41 39 38 35 33 36 42 58 64 48 44 39 31 27 25 24 21 21 24 24 21 19 18 17 17 17 17 16 15 15
53 54 55 57 58 58 56 53 52 50 46 43 39 38 36 35 33 35 42 44 61 69 54 48 37 30 30 29 26 25 26 28 25 21 17 15 16 16 16 15 14 13 13

GEFSMW_500_meanwind_006.txt.gz
Wind_Speed
29 31 34 36 36 36 34 30 28 29 28 27 27 25 24 24 22 22 21 19 18 19 20 22 24 27 31 33 36 39 39 38 35 33 29 28 29 30 31 32 32 32 33
32 35 36 36 36 35 30 27 28 29 27 26 25 23 21 19 19 18 16 14 13 14 15 17 21 24 28 31 35 38 40 40 38 36 33 30 29 30 30 33 35 35 37
36 37 37 37 36 32 30 29 29 28 25 24 24 21 18 16 16 17 16 15 14 15 16 17 20 24 27 31 34 37 38 39 39 39 38 34 31 31 30 31 34 35 35
38 38 37 35 33 30 30 31 30 28 26 25 23 21 20 19 20 21 21 20 19 18 18 19 21 24 27 31 34 36 38 39 39 39 39 37 34 33 32 31 31 32 33
38 35 32 31 30 31 33 33 30 28 26 26 26 26 25 26 26 27 28 27 25 22 20 21 23 25 29 32 32 33 35 37 37 38 38 38 37 35 33 31 31 32 33
31 30 29 28 29 32 33 31 29 28 26 27 28 29 29 30 31 32 33 32 29 24 21 22 24 26 29 32 33 32 32 33 34 35 36 38 38 37 35 33 33 33 34
27 28 26 27 30 32 31 30 30 30 30 30 31 31 32 32 31 31 31 30 28 25 22 23 25 27 29 32 34 34 32 31 31 32 34 36 38 39 37 35 34 35 35
26 28 30 30 30 31 31 32 32 33 34 34 34 34 34 33 31 30 29 29 28 27 24 24 25 26 28 31 34 35 33 31 30 30 32 35 36 38 38 37 35 36 35
29 31 33 34 33 33 34 35 36 37 38 38 38 37 36 34 33 32 30 29 28 26 24 24 25 25 27 30 33 34 32 30 30 29 30 33 35 36 37 37 35 35 34
34 36 37 39 41 42 43 43 43 44 45 45 44 42 41 38 36 36 35 33 29 27 25 24 24 25 27 29 31 34 33 30 28 27 28 29 32 33 34 35 35 35 34
40 42 44 44 45 47 49 49 49 49 50 51 50 49 48 46 42 40 38 35 31 29 29 28 27 27 28 30 30 33 33 31 29 27 26 27 27 29 31 33 34 35 35
42 44 47 48 50 51 53 55 56 56 56 56 56 56 55 53 49 46 44 40 36 34 35 35 33 31 31 31 30 31 33 32 29 26 25 24 25 26 28 30 32 33 34
45 47 49 51 53 55 56 59 61 62 62 61 61 61 59 57 55 52 49 45 42 40 39 39 37 34 32 31 30 31 32 31 29 26 24 21 20 21 23 25 27 29 31
46 48 51 53 56 58 60 62 67 70 70 69 67 66 65 63 62 60 56 49 45 44 44 43 40 36 34 32 30 30 31 30 28 25 22 19 16 16 17 18 20 24 28
51 54 56 58 60 65 69 70 72 73 72 73 75 75 75 75 72 67 61 56 55 52 50 47 43 40 38 35 32 30 30 29 27 24 21 17 13 12 13 14 15 19 23
62 64 66 68 68 70 74 77 77 76 75 75 75 72 72 72 70 69 69 70 68 63 56 49 45 43 42 38 35 32 30 29 27 24 21 18 14 12 12 13 14 16 17
73 75 76 77 77 78 79 81 84 87 89 89 86 83 80 78 79 80 80 81 77 69 61 53 48 46 43 41 38 34 31 30 28 25 22 19 15 14 13 14 16 19 21
82 83 82 80 78 75 72 71 71 72 74 76 78 81 84 86 86 86 84 81 76 69 64 58 51 47 45 44 41 38 34 31 29 26 23 19 16 14 15 16 18 20 24
79 74 68 62 55 48 43 40 40 42 44 46 49 52 56 61 66 69 70 69 68 65 61 58 52 49 48 46 43 40 37 34 32 28 24 21 17 14 15 17 18 20 22
57 50 42 37 34 34 36 38 40 40 39 39 40 39 38 38 42 46 51 55 57 57 56 53 49 48 47 46 43 41 39 36 33 30 26 23 19 16 16 17 18 20 22
35 32 32 34 37 41 44 46 46 45 44 44 43 41 37 34 34 36 39 44 49 53 54 52 49 46 45 45 43 42 39 36 33 31 28 24 21 19 19 20 20 21 22
33 36 39 43 46 48 49 49 49 49 49 48 46 44 39 34 32 31 30 31 34 40 47 52 55 51 45 45 45 42 39 36 33 31 29 25 23 23 22 23 24 24 24
41 45 47 49 50 51 52 51 51 52 53 52 50 47 44 38 33 29 26 25 26 27 33 44 55 54 49 48 48 44 39 35 32 30 28 25 24 24 24 26 26 25 23
46 49 50 50 49 50 51 53 54 55 56 55 52 49 46 43 37 32 28 26 26 27 28 34 47 57 51 48 48 44 40 35 31 29 27 25 24 24 25 25 24 22 19
51 53 53 51 50 49 50 51 53 55 54 51 48 46 45 43 40 36 31 29 30 30 31 33 40 50 50 44 44 40 37 32 30 28 26 24 24 24 23 23 20 18 19
55 54 53 53 51 50 50 50 51 51 49 45 41 40 40 42 41 37 34 32 31 33 32 32 34 40 43 42 41 38 35 31 29 27 26 25 25 24 23 21 19 20 19

GEFSMW_500_meanwind_012.txt.gz
Wind_Speed
46 50 52 47 41 37 35 36 38 38 39 40 39 35 31 29 28 27 26 26 25 24 22 20 18 17 16 16 16 16 17 19 21 23 24 25 26 27 28 29 29 29 30
46 46 42 35 32 32 35 38 39 40 41 40 38 35 33 31 28 27 26 25 24 22 20 19 17 16 17 17 17 17 18 20 22 24 24 24 25 27 28 30 31 31 30
39 38 29 20 23 29 33 37 40 41 41 39 37 35 34 33 30 27 24 23 22 22 21 20 20 20 20 19 19 19 19 20 23 25 26 25 24 26 28 30 31 32 32
40 41 35 30 30 31 35 37 39 39 38 36 35 34 32 30 29 26 24 22 21 22 22 23 23 24 23 22 21 20 19 20 22 25 27 28 27 26 26 29 31 33 33
41 41 39 37 36 38 39 35 33 32 31 31 31 29 27 26 26 26 25 23 22 23 24 25 27 28 27 26 24 22 22 21 23 24 26 28 28 28 26 26 29 32 33
38 39 38 38 39 38 36 32 31 31 30 30 29 28 26 25 25 27 27 26 26 25 25 27 29 30 30 28 26 25 24 24 24 25 26 27 27 28 28 25 26 30 31
35 35 36 36 37 38 37 36 34 34 34 34 33 32 30 29 28 29 30 30 31 30 29 29 30 31 31 30 29 28 27 26 26 26 26 26 27 27 27 26 25 27 30
38 39 40 40 41 40 40 40 40 40 40 40 40 40 39 37 36 34 33 33 34 35 35 34 34 34 34 33 31 30 29 28 28 27 26 26 27 27 27 26 26 27 28
42 44 45 45 46 47 46 46 46 46 47 47 47 47 47 47 46 45 43 41 39 38 38 37 37 37 36 36 34 32 31 29 29 28 27 26 26 27 27 26 26 26 27
46 47 49 50 50 51 52 52 53 53 54 55 55 55 55 55 55 54 53 51 48 45 43 40 39 39 39 38 36 34 32 30 30 30 29 27 26 26 26 26 25 25 25
49 51 52 53 54 55 56 57 57 58 60 61 62 62 62 62 62 61 60 59 57 54 51 48 45 43 41 40 38 35 32 30 30 30 29 27 25 25 26 25 24 23 24
53 54 56 57 57 58 59 60 61 62 63 64 65 66 67 66 66 66 66 65 63 60 57 54 53 50 46 43 41 39 35 32 30 29 28 27 25 25 25 24 22 22 22
59 62 63 63 63 64 65 66 67 67 68 68 69 69 70 70 70 69 68 68 67 65 62 58 56 54 52 48 45 43 39 35 32 30 28 26 25 24 24 23 22 21 21
65 66 67 68 69 70 71 72 74 75 76 77 77 77 77 77 76 75 73 72 71 69 67 64 61 58 56 53 49 46 42 37 34 31 28 26 25 24 23 22 21 20 19
68 70 72 74 76 78 78 78 77 76 75 75 76 78 80 81 82 82 81 79 76 75 72 70 67 65 61 57 53 51 47 42 37 33 29 27 25 24 23 21 21 20 18
72 75 78 79 78 74 70 64 59 55 53 52 53 55 58 62 68 72 77 80 81 81 79 76 72 68 66 63 59 56 52 47 42 36 33 30 27 25 24 22 21 20 19
77 78 75 69 61 53 48 44 41 38 37 35 33 32 32 33 36 41 48 56 64 71 75 75 72 69 65 63 61 58 55 52 48 42 37 33 30 27 25 23 22 20 18
75 68 57 49 43 41 40 40 40 40 40 40 39 38 37 34 33 32 31 31 34 42 50 57 63 65 65 63 59 55 54 52 49 44 39 35 32 30 27 24 22 20 18
59 49 43 40 40 41 42 43 44 45 45 45 45 45 43 41 39 36 33 32 31 30 31 35 43 51 57 61 61 58 55 52 49 45 40 37 35 32 29 27 24 21 20
47 43 42 43 44 46 48 49 49 49 49 48 48 48 47 45 43 40 37 35 34 32 30 30 32 36 45 53 58 59 58 56 51 46 42 39 36 34 32 30 26 23 21
45 45 47 49 51 52 53 54 53 53 51 50 49 48 47 46 44 42 40 38 37 35 33 32 31 32 36 44 53 57 58 56 53 49 45 41 39 36 35 33 29 26 23
49 51 53 55 56 56 56 55 54 53 52 51 49 48 47 46 44 43 41 41 39 37 35 33 32 32 32 36 45 53 55 52 51 50 48 45 42 40 37 35 32 28 25
54 56 57 58 57 57 57 56 55 53 52 51 49 47 46 44 43 42 42 41 40 38 36 34 33 32 31 33 39 49 54 51 49 49 48 46 44 42 39 37 34 30 27
58 59 58 57 55 54 53 54 53 52 51 49 47 45 43 42 40 40 40 39 39 38 36 34 33 32 30 31 35 46 54 52 48 47 47 46 46 43 40 37 34 31 27
60 59 59 57 55 53 52 50 49 47 46 43 41 39 37 36 36 36 35 35 35 34 33 31 31 30 28 27 31 41 53 54 48 47 46 45 43 40 38 36 33 30 27
60 60 59 57 53 50 47 44 41 39 37 34 33 32 31 31 32 32 31 31 31 31 30 30 29 27 24 23 26 35 48 54 48 46 46 43 39 37 35 33 31 29 27

GEFSMW_500_meanwind_018.txt.gz
Wind_Speed
45 47 48 50 51 51 47 44 39 30 23 18 18 19 20 19 21 23 23 22 22 21 21 20 19 17 16 16 16 16 17 17 16 14 13 12 11 11 11 13 14 17 19
42 43 45 45 44 45 42 36 32 27 23 19 20 21 21 20 21 22 22 22 21 21 21 21 19 18 18 17 17 17 17 17 17 16 15 13 12 11 12 12 13 15 18
37 39 40 39 40 39 37 35 33 29 26 24 22 21 21 20 19 20 20 20 19 19 19 20 19 19 19 19 18 19 19 19 19 17 16 15 15 14 14 14 14 15 17
35 36 37 37 37 37 36 34 33 30 29 27 24 24 21 19 18 18 18 19 19 19 20 20 20 20 20 20 20 21 21 21 21 20 19 17 16 16 18 18 16 16 18
33 35 36 37 38 39 38 36 35 33 32 30 29 27 25 24 23 22 21 21 21 21 21 22 22 22 21 21 22 23 23 23 23 23 22 20 19 17 17 20 20 18 18
32 35 37 39 42 42 42 41 40 38 36 35 34 33 32 31 30 29 27 27 26 25 25 24 24 24 24 24 24 24 25 25 26 26 25 24 23 21 19 19 20 21 20
33 36 39 42 44 45 46 46 45 44 43 42 41 39 38 38 38 37 36 35 34 32 30 29 28 28 28 28 27 27 27 27 28 28 27 27 26 24 23 21 21 21 22
38 41 44 46 47 47 48 48 48 48 47 47 46 45 45 44 44 44 44 44 43 41 39 36 34 33 33 33 32 31 30 30 30 30 30 29 28 27 26 24 23 22 23
45 48 50 53 53 53 53 52 51 50 50 50 51 51 51 51 50 50 49 49 49 49 48 46 43 41 40 39 38 36 35 34 33 33 32 31 30 29 28 27 25 23 22
49 52 55 57 58 59 60 60 59 57 56 55 55 55 56 56 56 55 55 54 54 54 55 55 53 51 49 46 44 42 41 38 36 35 34 33 32 31 30 28 26 24 22
50 53 56 58 61 64 66 67 68 67 66 65 63 62 61 61 61 61 60 59 59 58 59 59 59 58 57 54 51 48 47 44 42 39 37 35 33 32 31 29 27 25 23
55 57 59 61 64 67 70 72 73 74 73 71 69 67 66 65 65 65 65 65 64 63 63 63 63 63 62 60 58 54 52 50 47 44 41 38 36 34 32 30 28 26 24
59 61 64 66 68 70 71 70 70 69 68 66 63 60 57 56 57 58 61 64 67 68 69 68 67 66 65 63 61 59 57 55 52 49 46 42 39 36 34 31 29 26 24
61 64 66 68 67 65 63 62 62 61 59 57 54 50 47 44 42 43 45 50 56 63 68 71 72 71 70 67 65 62 60 58 55 53 50 46 43 39 36 33 30 27 24
63 65 65 62 59 58 58 57 57 56 54 52 50 46 43 41 38 36 36 37 40 45 52 60 67 72 74 73 70 66 62 59 57 54 52 49 46 42 38 35 31 29 26
61 60 58 55 55 55 55 56 56 56 55 53 50 48 45 43 41 38 37 35 35 35 37 40 47 56 65 72 74 72 68 62 58 55 53 51 48 45 41 37 34 31 27
57 54 53 53 55 56 57 58 58 58 57 56 54 52 50 48 45 43 40 38 36 34 34 33 34 37 45 55 66 72 72 68 62 57 54 52 49 47 43 39 36 32 29
52 52 52 54 56 58 60 60 60 60 59 58 56 54 53 51 49 47 44 42 40 37 36 35 34 34 34 38 46 59 68 70 67 61 56 53 51 48 45 41 38 34 30
52 52 54 56 58 60 61 61 61 60 59 57 55 53 52 52 51 48 46 44 43 41 39 37 36 33 32 32 34 40 53 63 66 64 59 55 52 50 47 44 40 37 32
51 52 55 57 59 61 62 61 58 56 54 52 50 48 48 50 50 48 46 45 43 41 40 39 37 35 33 30 29 30 38 50 59 62 61 57 53 51 48 46 43 39 34
51 53 56 58 60 61 61 58 55 52 48 45 43 42 43 45 46 46 44 43 42 41 39 38 37 35 33 31 28 26 29 39 50 57 58 56 53 50 48 47 45 41 36
51 54 57 58 59 60 59 55 51 48 44 40 37 36 37 39 40 41 40 39 39 39 38 36 35 34 33 31 28 25 25 31 41 51 53 52 51 49 48 47 46 43 38
52 55 58 58 59 59 57 52 49 45 41 36 32 29 29 30 32 34 35 35 35 34 34 34 33 33 32 31 28 25 23 25 34 45 51 51 49 49 48 47 45 42 38
52 55 57 58 58 57 54 51 48 43 39 33 28 24 22 22 24 26 28 29 30 30 30 31 31 32 31 30 28 26 23 23 31 41 49 48 47 46 47 47 45 42 38
51 55 57 58 58 56 53 49 46 43 38 33 27 21 18 15 16 18 20 23 24 26 28 29 30 31 31 30 28 26 24 24 29 38 47 48 47 46 46 46 44 41 38
50 54 56 58 58 55 51 47 45 43 39 34 28 20 15 10 9 10 14 17 19 22 24 26 28 29 30 30 29 28 26 25 28 35 43 48 47 47 46 45 43 40 37